TimePST,TemperatureF,Dew PointF,Humidity,Sea Level PressureIn,VisibilityMPH,Wind Direction,Wind SpeedMPH,Gust SpeedMPH,PrecipitationIn,Events,Conditions,WindDirDegrees,DateUTC
12:53 AM,39.9,37.0,89,29.99,10.0,Calm,Calm,-,N/A,,Clear,0,2012-12-24 08:53:00
1:53 AM,39.0,36.0,89,30.01,10.0,Calm,Calm,-,N/A,,Clear,0,2012-12-24 09:53:00
2:53 AM,37.0,35.1,93,30.03,10.0,North,4.6,-,N/A,,Mostly Cloudy,360,2012-12-24 10:53:00
3:53 AM,37.0,35.1,93,30.06,10.0,Calm,Calm,-,N/A,,Clear,0,2012-12-24 11:53:00
4:53 AM,33.1,32.0,96,30.08,10.0,Calm,Calm,-,N/A,,Clear,0,2012-12-24 12:53:00
5:18 AM,33.8,30.2,87,30.09,1.8,Calm,Calm,-,N/A,,Clear,0,2012-12-24 13:18:00
5:24 AM,33.8,32.0,93,30.09,0.8,Calm,Calm,-,N/A,,Clear,0,2012-12-24 13:24:00
5:40 AM,33.8,30.2,87,30.10,1.5,Calm,Calm,-,N/A,,Clear,0,2012-12-24 13:40:00
5:42 AM,33.8,30.2,87,30.10,3.0,Calm,Calm,-,N/A,,Clear,0,2012-12-24 13:42:00
5:53 AM,33.1,32.0,96,30.11,10.0,North,4.6,-,N/A,,Clear,350,2012-12-24 13:53:00
6:53 AM,34.0,32.0,92,30.13,10.0,NW,4.6,-,N/A,,Clear,310,2012-12-24 14:53:00
7:53 AM,34.0,32.0,92,30.17,10.0,Calm,Calm,-,N/A,,Clear,0,2012-12-24 15:53:00
8:53 AM,36.0,33.1,89,30.20,10.0,NE,4.6,-,N/A,,Clear,40,2012-12-24 16:53:00
9:53 AM,42.1,37.0,82,30.23,10.0,Calm,Calm,-,N/A,,Clear,0,2012-12-24 17:53:00
10:53 AM,46.0,37.0,71,30.23,10.0,NNW,3.5,-,N/A,,Clear,330,2012-12-24 18:53:00
11:53 AM,50.0,35.1,57,30.20,10.0,NNE,4.6,-,N/A,,Clear,20,2012-12-24 19:53:00
12:53 PM,52.0,33.1,49,30.19,10.0,NNW,5.8,-,N/A,,Clear,340,2012-12-24 20:53:00
1:53 PM,53.1,28.9,40,30.18,10.0,NE,6.9,-,N/A,,Clear,40,2012-12-24 21:53:00
2:53 PM,53.1,27.0,37,30.17,10.0,North,4.6,-,N/A,,Clear,350,2012-12-24 22:53:00
3:53 PM,48.9,28.9,46,30.17,10.0,Calm,Calm,-,N/A,,Clear,0,2012-12-24 23:53:00
4:53 PM,46.9,30.0,52,30.17,10.0,NNW,3.5,-,N/A,,Clear,330,2012-12-25 00:53:00
5:53 PM,42.1,32.0,67,30.18,10.0,NW,3.5,-,N/A,,Clear,310,2012-12-25 01:53:00
6:53 PM,42.1,34.0,73,30.18,10.0,NNW,3.5,-,N/A,,Clear,340,2012-12-25 02:53:00
7:53 PM,41.0,34.0,76,30.17,10.0,NW,3.5,-,N/A,,Clear,320,2012-12-25 03:53:00
8:53 PM,39.9,33.1,77,30.16,10.0,NW,3.5,-,N/A,,Clear,320,2012-12-25 04:53:00
9:53 PM,37.9,33.1,83,30.17,10.0,NNW,3.5,-,N/A,,Clear,340,2012-12-25 05:53:00
10:53 PM,37.0,33.1,86,30.16,10.0,Calm,Calm,-,N/A,,Partly Cloudy,0,2012-12-25 06:53:00
11:53 PM,39.0,33.1,79,30.14,10.0,NNW,3.5,-,N/A,,Clear,330,2012-12-25 07:53:00